• In Switzerland
  • List of Countries
  • For 7 days
  • Water Temperature
  • Satellite Maps
  • Weather Map
  • Weather Widgets
  • user-avatar
    Login

    Hourly Weather Tehran

    Today, 23 October, Tuesday

    Time Temperature Precipitation Wind Pressure Humidity
    00:00 +19°C° 0 mm 2 mps 666 mmHg 49%
    01:00 +19°C° 0 mm 2 mps 666 mmHg 46%
    02:00 +19°C° 0 mm 2 mps 666 mmHg 47%
    03:00 +19°C° 0 mm 1 mps 666 mmHg 53%
    04:00 +19°C° 0 mm 1 mps 666 mmHg 53%
    05:00 +18°C° 0 mm 1 mps 666 mmHg 54%
    06:00 +18°C° 0 mm 1 mps 666 mmHg 54%
    07:00 +18°C° 0 mm 2 mps 666 mmHg 49%
    08:00 +20°C° 0 mm 2 mps 667 mmHg 45%
    09:00 +20°C° 0 mm 3 mps 667 mmHg 41%
    10:00 +21°C° 0 mm 3 mps 667 mmHg 38%
    11:00 +22°C° 0 mm 3 mps 667 mmHg 35%
    12:00 +23°C° 0 mm 4 mps 667 mmHg 32%
    13:00 +24°C° 0 mm 3 mps 667 mmHg 31%
    14:00 +24°C° 0 mm 3 mps 666 mmHg 30%
    15:00 +23°C° 0 mm 4 mps 666 mmHg 31%
    16:00 +24°C° 0 mm 3 mps 666 mmHg 32%
    17:00 +22°C° 0 mm 3 mps 666 mmHg 33%
    18:00 +21°C° 0 mm 2 mps 666 mmHg 35%
    19:00 +21°C° 0 mm 2 mps 666 mmHg 35%
    20:00 +21°C° 0 mm 1 mps 666 mmHg 36%
    21:00 +21°C° 0 mm 1 mps 665 mmHg 37%
    22:00 +21°C° 0 mm 1 mps 665 mmHg 37%
    23:00 +20°C° 0 mm 1 mps 665 mmHg 38%

    Tomorrow, 24 October, Wednesday

    Time Temperature Precipitation Wind Pressure Humidity
    00:00 +20°C° 0 mm 1 mps 665 mmHg 38%
    01:00 +19°C° 0 mm 1 mps 665 mmHg 39%
    02:00 +19°C° 0 mm 1 mps 665 mmHg 40%
    03:00 +18°C° 0 mm 1 mps 665 mmHg 40%
    04:00 +18°C° 0 mm 1 mps 664 mmHg 41%
    05:00 +18°C° 0 mm 1 mps 664 mmHg 41%
    06:00 +18°C° 0 mm 1 mps 664 mmHg 42%
    07:00 +19°C° 0 mm 1 mps 665 mmHg 38%
    08:00 +20°C° 0 mm 1 mps 665 mmHg 35%
    09:00 +21°C° 0 mm 2 mps 666 mmHg 31%
    10:00 +23°C° 0 mm 2 mps 665 mmHg 30%
    11:00 +22°C° 0 mm 3 mps 665 mmHg 28%
    12:00 +24°C° 0 mm 3 mps 665 mmHg 26%
    13:00 +24°C° 0 mm 3 mps 665 mmHg 26%
    14:00 +25°C° 0 mm 3 mps 664 mmHg 25%
    15:00 +25°C° 0 mm 3 mps 664 mmHg 25%
    16:00 +24°C° 0 mm 3 mps 664 mmHg 28%
    17:00 +24°C° 0 mm 2 mps 664 mmHg 31%
    18:00 +23°C° 0 mm 2 mps 663 mmHg 34%
    19:00 +23°C° 0 mm 1 mps 663 mmHg 36%
    20:00 +22°C° 0 mm 1 mps 663 mmHg 38%
    21:00 +22°C° 0 mm 1 mps 663 mmHg 39%
    22:00 +22°C° 0 mm 1 mps 663 mmHg 41%
    23:00 +21°C° 0 mm 1 mps 663 mmHg 42%

    Day after tomorrow, 25 October, Thursday

    Time Temperature Precipitation Wind Pressure Humidity
    00:00 +21°C° 0 mm 1 mps 663 mmHg 44%
    01:00 +21°C° 0 mm 1 mps 662 mmHg 44%
    02:00 +20°C° 0 mm 1 mps 662 mmHg 44%
    03:00 +20°C° 0 mm 1 mps 662 mmHg 44%
    04:00 +20°C° 0 mm 1 mps 662 mmHg 44%
    05:00 +20°C° 0 mm 1 mps 662 mmHg 44%
    06:00 +19°C° 0 mm 1 mps 662 mmHg 44%
    07:00 +20°C° 0 mm 2 mps 662 mmHg 40%
    08:00 +23°C° 0 mm 2 mps 663 mmHg 36%
    09:00 +24°C° 0 mm 3 mps 664 mmHg 32%
    10:00 +25°C° 0 mm 3 mps 663 mmHg 31%
    11:00 +26°C° 0 mm 3 mps 663 mmHg 29%
    12:00 +26°C° 0 mm 4 mps 663 mmHg 27%
    13:00 +27°C° 0 mm 3 mps 662 mmHg 27%
    14:00 +27°C° 0 mm 3 mps 662 mmHg 26%
    15:00 +27°C° 0 mm 3 mps 662 mmHg 26%
    16:00 +26°C° 0 mm 3 mps 662 mmHg 28%
    17:00 +25°C° 0 mm 3 mps 662 mmHg 30%
    18:00 +24°C° 0 mm 3 mps 661 mmHg 32%
    19:00 +24°C° 0 mm 3 mps 662 mmHg 33%
    20:00 +24°C° 0 mm 2 mps 662 mmHg 34%
    21:00 +23°C° 0 mm 2 mps 662 mmHg 35%
    22:00 +23°C° 0 mm 2 mps 662 mmHg 36%
    23:00 +21°C° 0 mm 2 mps 662 mmHg 37%

    26 October, Friday

    Time Temperature Precipitation Wind Pressure Humidity
    00:00 +21°C° 0 mm 2 mps 662 mmHg 39%
    01:00 +21°C° 0 mm 2 mps 662 mmHg 40%
    02:00 +20°C° 0 mm 2 mps 661 mmHg 41%
    03:00 +20°C° 0 mm 2 mps 661 mmHg 43%
    04:00 +20°C° 0 mm 2 mps 661 mmHg 45%
    05:00 +20°C° 0 mm 2 mps 661 mmHg 47%
    06:00 +20°C° 0 mm 2 mps 661 mmHg 49%
    07:00 +21°C° 0.2 mm 3 mps 662 mmHg 48%
    08:00 +22°C° 0.2 mm 3 mps 663 mmHg 46%
    09:00 +24°C° 0.2 mm 3 mps 663 mmHg 44%
    10:00 +24°C° 0.3 mm 3 mps 663 mmHg 45%
    11:00 +24°C° 0.3 mm 3 mps 663 mmHg 45%
    12:00 +24°C° 0.3 mm 3 mps 663 mmHg 45%
    13:00 +23°C° 0.1 mm 4 mps 663 mmHg 44%
    14:00 +23°C° 0.1 mm 4 mps 663 mmHg 42%
    15:00 +23°C° 0.1 mm 4 mps 662 mmHg 41%
    16:00 +22°C° 1.1 mm 4 mps 663 mmHg 48%
    17:00 +21°C° 1.1 mm 4 mps 663 mmHg 55%
    18:00 +20°C° 1.1 mm 5 mps 663 mmHg 62%
    19:00 +20°C° 0.8 mm 5 mps 663 mmHg 62%
    20:00 +19°C° 0.8 mm 5 mps 664 mmHg 62%
    21:00 +19°C° 0.8 mm 5 mps 664 mmHg 61%
    22:00 +19°C° 0.2 mm 4 mps 664 mmHg 60%
    23:00 +19°C° 0.2 mm 4 mps 664 mmHg 59%

    27 October, Saturday

    Time Temperature Precipitation Wind Pressure Humidity
    00:00 +19°C° 0.2 mm 3 mps 664 mmHg 58%
    01:00 +19°C° 0 mm 3 mps 664 mmHg 59%
    02:00 +18°C° 0 mm 2 mps 665 mmHg 60%
    03:00 +18°C° 0 mm 2 mps 665 mmHg 60%
    04:00 +18°C° 0 mm 2 mps 665 mmHg 60%
    05:00 +18°C° 0 mm 2 mps 666 mmHg 60%
    06:00 +17°C° 0 mm 2 mps 666 mmHg 60%
    07:00 +18°C° 0 mm 2 mps 667 mmHg 55%
    08:00 +19°C° 0 mm 3 mps 668 mmHg 51%
    09:00 +20°C° 0 mm 3 mps 669 mmHg 46%
    10:00 +21°C° 0 mm 4 mps 669 mmHg 45%
    11:00 +21°C° 0 mm 4 mps 669 mmHg 43%
    12:00 +21°C° 0 mm 4 mps 669 mmHg 41%
    13:00 +21°C° 0 mm 4 mps 669 mmHg 41%
    14:00 +21°C° 0 mm 4 mps 669 mmHg 40%
    15:00 +21°C° 0 mm 3 mps 669 mmHg 39%
    16:00 +21°C° 0 mm 3 mps 669 mmHg 41%
    17:00 +20°C° 0 mm 3 mps 669 mmHg 42%
    18:00 +19°C° 0 mm 3 mps 670 mmHg 44%
    19:00 +19°C° 0 mm 3 mps 670 mmHg 45%
    20:00 +18°C° 0 mm 2 mps 670 mmHg 46%
    21:00 +18°C° 0 mm 2 mps 670 mmHg 47%
    22:00 +18°C° 0 mm 2 mps 670 mmHg 47%
    23:00 +17°C° 0 mm 2 mps 670 mmHg 47%

    28 October, Sunday

    Time Temperature Precipitation Wind Pressure Humidity
    00:00 +17°C° 0 mm 2 mps 670 mmHg 46%
    01:00 +16°C° 0 mm 2 mps 670 mmHg 46%
    02:00 +16°C° 0 mm 2 mps 670 mmHg 46%
    03:00 +16°C° 0 mm 1 mps 670 mmHg 45%
    04:00 +16°C° 0 mm 1 mps 670 mmHg 46%
    05:00 +15°C° 0 mm 1 mps 670 mmHg 48%
    06:00 +15°C° 0 mm 1 mps 670 mmHg 49%
    07:00 +16°C° 0 mm 1 mps 671 mmHg 49%
    08:00 +18°C° 0 mm 1 mps 671 mmHg 50%
    09:00 +18°C° 0 mm 2 mps 672 mmHg 51%
    10:00 +19°C° 0 mm 2 mps 672 mmHg 50%
    11:00 +19°C° 0 mm 2 mps 671 mmHg 50%
    12:00 +20°C° 0 mm 2 mps 671 mmHg 50%
    13:00 +20°C° 0 mm 2 mps 671 mmHg 50%
    14:00 +21°C° 0 mm 1 mps 671 mmHg 50%
    15:00 +21°C° 0 mm 1 mps 671 mmHg 50%
    16:00 +21°C° 0 mm 1 mps 671 mmHg 52%
    17:00 +21°C° 0 mm 1 mps 671 mmHg 54%
    18:00 +20°C° 0 mm 1 mps 672 mmHg 55%
    19:00 +20°C° 0 mm 1 mps 672 mmHg 57%
    20:00 +19°C° 0 mm 1 mps 672 mmHg 58%
    21:00 +17°C° 0 mm 0 mps 672 mmHg 59%
    22:00 +19°C° 0 mm 1 mps 672 mmHg 60%
    23:00 +19°C° 0 mm 1 mps 672 mmHg 60%

    29 October, Monday

    Time Temperature Precipitation Wind Pressure Humidity
    00:00 +18°C° 0 mm 1 mps 671 mmHg 61%
    01:00 +18°C° 0 mm 1 mps 671 mmHg 61%
    02:00 +18°C° 0 mm 1 mps 671 mmHg 62%
    03:00 +15°C° 0 mm 0 mps 671 mmHg 63%
    04:00 +15°C° 0 mm 0 mps 671 mmHg 63%
    05:00 +15°C° 0 mm 0 mps 671 mmHg 63%
    06:00 +16°C° 0 mm 1 mps 672 mmHg 63%
    07:00 +18°C° 0 mm 1 mps 672 mmHg 58%
    08:00 +19°C° 0 mm 1 mps 672 mmHg 54%
    09:00 +19°C° 0 mm 1 mps 673 mmHg 49%
    10:00 +20°C° 0 mm 1 mps 673 mmHg 48%
    11:00 +21°C° 0 mm 1 mps 672 mmHg 46%
    12:00 +21°C° 0 mm 1 mps 672 mmHg 44%
    13:00 +21°C° 0 mm 1 mps 672 mmHg 44%
    14:00 +21°C° 0 mm 1 mps 672 mmHg 45%
    15:00 +22°C° 0 mm 1 mps 672 mmHg 45%
    16:00 +21°C° 0 mm 1 mps 672 mmHg 47%
    17:00 +21°C° 0 mm 1 mps 672 mmHg 49%
    18:00 +20°C° 0 mm 1 mps 672 mmHg 51%
    19:00 +20°C° 0 mm 1 mps 672 mmHg 51%
    20:00 +20°C° 0 mm 1 mps 672 mmHg 52%
    21:00 +19°C° 0 mm 1 mps 672 mmHg 52%
    22:00 +19°C° 0 mm 1 mps 672 mmHg 53%
    23:00 +19°C° 0 mm 1 mps 671 mmHg 53%
    Show more